Weather reports worldwide

Advertisment
Akron, oh, United States of America (2074227): temperature & dewpoint: 13.09.2019 14:00:00 - 19.09.2019 14:00:00 (EDT)Akron, oh, United States of America (2074227): wind speed & gusts: 13.09.2019 14:00:00 - 19.09.2019 14:00:00 (EDT)Akron, oh, United States of America (2074227): wind direction: 13.09.2019 14:00:00 - 19.09.2019 14:00:00 (EDT)Akron, oh, United States of America (2074227): reduced air pressure: 13.09.2019 14:00:00 - 19.09.2019 14:00:00 (EDT)Akron, oh, United States of America (2074227): visibility: 13.09.2019 14:00:00 - 19.09.2019 14:00:00 (EDT)Akron, oh, United States of America (2074227): precipitation: 13.09.2019 14:00:00 - 19.09.2019 14:00:00 (EDT)
Date & Time tt [°C] td [°C] ff [km/h] ff [kn] fx [km/h] fx [kn] dd ppp [hPa] vv [km] rr [mm]
19.09.2019 14:00:00 - - - - - - - - - -
19.09.2019 13:00:00 25,6 12,2 15 8 - - S 1022,3 16 -
19.09.2019 12:00:00 23,9 11,1 16 9 - - S 1022,6 16 -
19.09.2019 11:00:00 22,2 11,1 13 7 - - S 1022,9 16 -
19.09.2019 10:00:00 20,0 9,4 8 4 - - - 1023,1 16 -
19.09.2019 09:00:00 17,2 7,8 13 7 - - SSE 1023,0 16 -
19.09.2019 08:00:00 15,0 7,2 9 5 - - - 1022,8 16 -
19.09.2019 07:00:00 15,0 7,2 11 6 - - - 1022,4 16 -
19.09.2019 06:00:00 15,0 7,2 11 6 - - ESE 1022,0 16 -
19.09.2019 05:00:00 15,6 7,2 8 4 - - E 1022,1 16 -
19.09.2019 04:00:00 16,7 7,2 5 3 - - - 1022,1 16 -
19.09.2019 03:00:00 16,7 6,7 0 0 - - N 1022,3 16 -
19.09.2019 02:00:00 16,1 7,2 0 0 - - N 1022,8 16 -
19.09.2019 01:00:00 17,2 7,2 0 0 - - N 1022,4 16 -
19.09.2019 00:00:00 18,9 6,7 0 0 - - N 1022,1 16 -
18.09.2019 23:00:00 19,4 6,7 0 0 - - N 1022,0 16 -
18.09.2019 22:00:00 19,4 7,2 5 3 - - - 1022,3 16 -
18.09.2019 21:00:00 20,6 7,8 11 6 - - ENE 1022,3 16 -
18.09.2019 20:00:00 20,6 8,3 13 7 - - ENE 1022,1 16 -
18.09.2019 19:00:00 23,3 7,8 16 9 - - ENE 1021,9 16 -
18.09.2019 18:00:00 25,0 8,3 18 10 - - ENE 1021,8 16 -
18.09.2019 17:00:00 26,1 7,8 11 6 - - ESE 1021,9 16 -
18.09.2019 16:00:00 25,6 7,2 13 7 - - E 1021,9 16 -
18.09.2019 15:00:00 26,1 8,3 13 7 - - E 1022,5 16 -
18.09.2019 14:00:00 25,6 9,4 13 7 - - E 1022,8 16 -
18.09.2019 13:00:00 24,4 10,0 15 8 - - E 1022,7 16 -
18.09.2019 12:00:00 23,9 11,1 5 3 - - - 1022,6 16 -
18.09.2019 11:00:00 21,7 11,1 8 4 - - - 1022,6 16 -
18.09.2019 10:00:00 19,4 11,1 9 5 - - SE 1022,8 16 -
18.09.2019 09:00:00 17,2 10,6 11 6 - - E 1023,0 16 -
18.09.2019 08:00:00 15,6 10,6 11 6 - - E 1022,7 16 -
18.09.2019 07:00:00 15,0 10,6 9 5 - - E 1021,9 16 -
18.09.2019 06:00:00 15,6 11,1 8 4 - - E 1021,7 16 -
18.09.2019 05:00:00 16,1 11,1 9 5 - - E 1021,3 16 -
18.09.2019 04:00:00 16,1 11,7 9 5 - - ENE 1021,1 16 -
18.09.2019 03:00:00 16,7 12,2 5 3 - - E 1021,6 16 -
18.09.2019 02:00:00 16,7 12,8 9 5 - - E 1021,6 16 -
18.09.2019 01:00:00 16,7 12,8 8 4 - - ENE 1021,3 16 -
18.09.2019 00:00:00 16,7 12,8 0 0 - - N 1021,3 16 -
17.09.2019 23:00:00 17,8 12,8 9 5 - - ENE 1021,4 16 -
17.09.2019 22:00:00 19,4 13,3 11 6 - - NE 1021,1 16 -
17.09.2019 21:00:00 21,1 15,6 13 7 - - NE 1020,5 16 -
17.09.2019 20:00:00 21,7 16,7 9 5 - - N 1019,7 16 -
17.09.2019 19:00:00 25,0 15,0 11 6 - - NE 1019,6 16 -
17.09.2019 18:00:00 26,1 15,0 15 8 - - ENE 1019,7 16 -
17.09.2019 17:00:00 26,7 15,0 13 7 - - N 1019,7 16 -
17.09.2019 16:00:00 26,1 15,6 13 7 - - NE 1020,1 16 -
17.09.2019 15:00:00 25,0 15,6 11 6 - - ENE 1020,8 16 -
17.09.2019 14:00:00 23,9 16,1 11 6 - - N 1021,4 16 -
17.09.2019 13:00:00 22,2 16,1 11 6 - - NNE 1021,7 16 -
17.09.2019 12:00:00 21,1 16,1 11 6 - - ENE 1022,1 16 -
17.09.2019 11:00:00 20,0 16,1 13 7 - - NNE 1022,1 16 -
17.09.2019 10:00:00 19,4 16,1 13 7 - - NE 1021,8 16 -
17.09.2019 09:00:00 18,9 16,1 8 4 - - NE 1021,4 15 -
17.09.2019 08:00:00 18,3 16,1 11 6 - - NE 1020,7 11 -
17.09.2019 07:00:00 18,3 16,1 13 7 - - NE 1020,0 13 -
17.09.2019 06:00:00 18,3 16,1 13 7 - - NE 1019,4 13 -
17.09.2019 05:00:00 18,3 16,1 11 6 - - NNE 1019,1 15 -
17.09.2019 04:00:00 18,3 16,1 8 4 - - NNE 1018,9 15 -
17.09.2019 03:00:00 18,3 16,1 11 6 - - NE 1019,1 15 -
17.09.2019 02:00:00 18,3 15,6 9 5 - - N 1019,1 16 -
17.09.2019 01:00:00 19,4 15,6 9 5 - - NNE 1019,0 16 -
17.09.2019 00:00:00 20,0 16,1 11 6 - - NNE 1018,9 16 -
16.09.2019 23:00:00 20,6 16,7 13 7 - - NNE 1018,6 16 -
16.09.2019 22:00:00 21,7 17,2 13 7 - - NE 1018,3 16 -
16.09.2019 21:00:00 22,8 17,2 9 5 - - NNE 1017,9 16 -
16.09.2019 20:00:00 23,9 17,2 11 6 - - NNE 1017,5 16 -
16.09.2019 19:00:00 25,6 17,2 18 10 - - N 1017,0 16 -
16.09.2019 18:00:00 27,2 17,2 18 10 - - N 1016,7 16 -
16.09.2019 17:00:00 28,9 17,2 13 7 - - NNW 1016,3 16 -
16.09.2019 16:00:00 28,9 16,7 9 5 - - NNW 1016,5 16 -
16.09.2019 15:00:00 28,3 17,2 9 5 - - N 1016,8 16 -
16.09.2019 14:00:00 28,3 17,2 9 5 - - NW 1017,0 16 -
16.09.2019 13:00:00 27,8 16,7 13 7 - - NNW 1017,3 16 -
16.09.2019 12:00:00 26,1 16,1 11 6 - - N 1017,5 16 -
16.09.2019 11:00:00 25,6 16,7 8 4 - - - 1018,0 16 -
16.09.2019 10:00:00 22,8 17,2 5 3 - - W 1018,2 16 -
16.09.2019 09:00:00 21,1 17,8 0 0 - - N 1017,9 16 -
16.09.2019 08:00:00 19,4 16,7 5 3 - - S 1017,9 16 -
16.09.2019 07:00:00 19,4 16,7 5 3 - - SSW 1017,5 16 -
16.09.2019 06:00:00 19,4 17,2 0 0 - - N 1017,4 16 -
16.09.2019 05:00:00 20,0 17,8 0 0 - - N 1017,4 16 -
16.09.2019 04:00:00 20,6 17,8 0 0 - - N 1017,6 16 0,0
16.09.2019 03:00:00 20,6 17,8 5 3 - - SE 1017,5 16 -
16.09.2019 02:00:00 21,1 17,2 0 0 - - N 1018,0 16 -
16.09.2019 01:00:00 21,7 16,7 0 0 - - N 1017,9 16 0,0
16.09.2019 00:00:00 22,2 15,6 8 4 - - SSW 1018,0 16 -
15.09.2019 23:00:00 21,1 15,6 8 4 - - S 1018,2 16 -
15.09.2019 22:00:00 21,7 15,6 8 4 - - S 1018,3 16 -
15.09.2019 21:00:00 22,2 16,1 0 0 - - N 1018,3 16 -
15.09.2019 20:00:00 22,8 16,1 8 4 - - S 1018,4 16 -
15.09.2019 19:00:00 24,4 16,1 5 3 - - S 1018,7 16 -
15.09.2019 18:00:00 25,0 15,6 8 4 - - SSE 1019,1 16 -
15.09.2019 17:00:00 25,0 15,0 18 10 - - S 1019,3 16 -
15.09.2019 16:00:00 25,0 14,4 16 9 - - SSW 1020,6 16 -
15.09.2019 15:00:00 24,4 15,6 8 4 - - S 1021,7 16 -
15.09.2019 14:00:00 24,4 15,6 9 5 - - W 1022,7 16 -
15.09.2019 13:00:00 23,9 15,6 9 5 - - SW 1022,5 16 -
15.09.2019 12:00:00 22,8 15,0 11 6 - - S 1022,6 16 -
15.09.2019 11:00:00 21,7 14,4 9 5 - - SSW 1023,1 16 -
15.09.2019 10:00:00 20,0 13,9 11 6 - - S 1023,0 16 -
15.09.2019 09:00:00 18,9 14,4 9 5 - - SW 1023,2 16 -
15.09.2019 08:00:00 16,1 13,3 0 0 - - N 1022,5 16 -
15.09.2019 07:00:00 15,0 12,2 5 3 - - SSE 1022,4 16 -
15.09.2019 06:00:00 13,9 11,7 0 0 - - N 1022,0 16 -
15.09.2019 05:00:00 14,4 12,2 0 0 - - N 1022,3 16 -
15.09.2019 04:00:00 15,0 12,2 0 0 - - N 1022,2 16 -
15.09.2019 03:00:00 16,1 12,8 0 0 - - N 1022,7 16 -
15.09.2019 02:00:00 16,1 13,3 0 0 - - N 1023,1 16 -
15.09.2019 01:00:00 17,2 13,3 5 3 - - SSW 1023,0 16 -
15.09.2019 00:00:00 16,7 13,3 5 3 - - SW 1023,2 16 -
14.09.2019 23:00:00 16,1 12,8 0 0 - - N 1023,1 16 -
14.09.2019 22:00:00 17,2 12,8 0 0 - - N 1022,9 16 -
14.09.2019 21:00:00 18,9 13,3 0 0 - - N 1022,4 16 -
14.09.2019 20:00:00 20,6 12,2 8 4 - - WSW 1022,1 16 -
14.09.2019 19:00:00 23,9 12,2 13 7 - - WSW 1021,9 16 -
14.09.2019 18:00:00 25,0 12,2 18 10 - - W 1022,1 16 -
14.09.2019 17:00:00 24,4 11,7 18 10 - - W 1021,9 16 -
14.09.2019 16:00:00 25,0 12,2 21 11 - - WNW 1022,0 16 -
14.09.2019 15:00:00 25,0 12,8 16 9 - - W 1022,2 16 -
14.09.2019 14:00:00 23,3 11,7 13 7 - - W 1022,7 16 -
14.09.2019 13:00:00 23,3 13,3 15 8 - - W 1023,0 16 -
14.09.2019 12:00:00 22,2 14,4 11 6 - - WSW 1023,2 16 -
14.09.2019 11:00:00 21,1 15,0 13 7 - - W 1023,3 16 -
14.09.2019 10:00:00 20,6 15,6 13 7 - - WNW 1022,9 16 -
14.09.2019 09:00:00 19,4 15,0 13 7 - - WNW 1022,1 16 -
14.09.2019 08:00:00 18,9 15,6 5 3 - - W 1021,7 16 -
14.09.2019 07:00:00 18,9 16,1 9 5 - - WNW 1021,1 16 -
14.09.2019 06:00:00 20,0 16,7 8 4 - - WNW 1020,4 16 -
14.09.2019 05:00:00 21,1 17,8 13 7 - - NNW 1020,0 16 -
14.09.2019 04:00:00 22,8 19,4 13 7 - - WSW 1019,8 16 1,0
14.09.2019 03:00:00 23,3 20,0 13 7 - - WSW 1020,1 16 0,8
14.09.2019 02:00:00 22,8 20,6 8 4 - - SSW 1019,4 16 0,3
14.09.2019 01:00:00 22,8 20,0 9 5 - - SSW 1018,4 16 2,8
14.09.2019 00:00:00 23,3 20,0 13 7 - - SSW 1018,4 16 1,0
13.09.2019 23:00:00 24,4 21,1 5 3 52 28 - 1017,2 13 0,5
13.09.2019 22:00:00 28,9 20,0 13 7 - - S 1016,6 16 0,0
13.09.2019 21:00:00 28,9 20,0 9 5 - - S 1016,6 16 -
13.09.2019 20:00:00 30,0 18,9 11 6 - - S 1016,3 16 -
13.09.2019 19:00:00 31,1 19,4 16 9 - - S 1017,4 16 -
13.09.2019 18:00:00 32,2 19,4 21 11 - - S 1017,4 16 -
13.09.2019 17:00:00 32,8 19,4 18 10 - - S 1017,2 16 -
13.09.2019 16:00:00 32,8 20,0 22 12 - - S 1017,8 16 -
13.09.2019 15:00:00 32,8 20,0 18 10 - - SSW 1018,9 16 -
13.09.2019 14:00:00 32,2 21,1 15 8 - - S 1019,7 16 -

tt = temperature
td = dewpoint
ff = wind speed
fx = gusts
dd = wind direction
ppp = reduced air pressure
vv = visibility
rr = precipitation

Next stations